Location: Unspecified
(58.7730°N, 5.8460°E)
Time: 17:26:43
(UTC+01:00)

CZ-3 Stage 3 - Visible Passes

Search period start: 23 March 2017 00:00
Search period end: 02 April 2017 01:00
Orbit: 399 x 34801 km, 30.6° (Epoch: 21 March)

Date Brightness Start Highest point End Pass type
(mag) Time Alt. Az. Time Alt. Az. Time Alt. Az.
23 Mar 8.5 17:05:23 10° ENE 21:32:34 19° E 23:38:20 10° E visible
24 Mar 8.8 02:20:12 10° W 04:21:42 33° W 09:19:38 10° W visible
24 Mar 8.2 22:28:17 10° SW 01:05:44 56° SSW 07:23:14 10° SSW visible
25 Mar 7.7 18:55:03 10° SSE 00:16:04 46° SE 04:51:09 10° SE visible
26 Mar 8.5 17:54:18 10° ENE 22:21:56 19° E 00:27:04 10° E visible
27 Mar 8.8 03:10:44 10° W 05:10:29 33° W 10:05:52 10° W visible
27 Mar 8.2 23:19:04 10° SW 01:52:01 56° SSW 08:12:53 10° SSW visible
28 Mar 7.7 19:45:38 10° SSE 01:03:33 45° SE 04:41:21 10° SE visible
29 Mar 8.5 17:43:26 10° ENE 22:11:19 18° E 00:15:38 10° E visible
30 Mar 8.8 03:01:16 10° W 04:59:16 34° W 09:52:00 10° W visible
30 Mar 8.2 23:09:50 10° SW 01:38:17 56° SSW 08:02:27 10° SSW visible
31 Mar 7.7 19:36:13 10° S 00:50:59 45° SE 04:31:30 10° SSE visible
01 Apr 8.4 17:32:47 10° ENE 22:00:44 18° E 00:04:01 10° E visible
